[[{"header":{"parameterUnit":"m.s-1","parameterCategory":1,"la1":30.2991,"la2":30.254,"lo1":-89.0895,"lo2":-89.0444,"dy":0.0017,"dx":0.0017,"nx":28,"ny":28,"refTime":"2025-07-10T09:00:00:Z","depth":0,"parameterNumber":2,"parameterNumberName":"U-component_of_WINDS"},"data":[0,0,0,0,0,0,0,0,0,0,0,0,0,0,0,0,0,0,0,0,0,0,0,0,0,0,0,0,0,0,0,0,0,0,0,0,0,0,0,0,0,0,0,0,0,0,0,0,0,0,0,0,0,0,0,0,0,0,3.6332,3.6333,0,3.6441,3.6442,3.6443,3.6379,3.6376,3.6373,3.637,3.6481,3.6487,3.6492,0,0,0,0,0,0,0,0,0,0,0,0,0,3.607,3.6075,3.6332,3.6334,3.6335,3.644,3.6442,3.6443,3.638,3.6376,3.6372,3.6369,3.6479,3.6486,3.6493,0,0,0,0,0,0,0,0,0,0,0,0,0,3.6182,3.6077,3.6332,3.6316,3.6315,3.644,3.6442,3.6444,3.638,3.6376,3.6371,3.6367,3.6477,3.6485,3.6494,3.6641,0,0,3.6521,3.6525,0,0,0,0,0,0,0,0,3.6175,3.6191,3.6317,3.6317,3.6317,3.6392,3.639,3.651,3.6382,3.6356,3.637,3.6364,3.6455,3.6465,3.6496,3.6646,3.6651,3.6522,3.6527,3.6531,3.6533,0,0,0,0,0,0,0,3.6168,3.6186,3.6375,3.6319,3.6319,3.6303,3.6314,3.6412,3.643,3.6358,3.6353,3.6367,3.6454,3.6488,3.6498,3.6652,3.6521,3.6529,3.6534,3.6538,3.6928,3.6933,0,0,0,0,0,0,3.6161,3.618,3.6372,3.6378,3.6233,3.6312,3.6324,3.6372,3.6429,3.6433,3.6371,3.6364,3.6475,3.6488,3.6502,3.6676,3.6531,3.6539,3.6544,3.6923,3.6929,3.6934,0,0,0,0,0,0,3.6156,3.6179,3.6367,3.6278,3.6301,3.6321,3.6376,3.6377,3.641,3.6439,3.6442,3.6402,3.6472,3.6489,3.6606,3.6679,3.6543,3.6551,3.6917,3.6925,3.6932,3.7028,0,0,0,0,0,0,3.6148,3.6177,3.6233,3.628,3.6306,3.6471,3.6381,3.6382,3.6425,3.6417,3.6468,3.6473,3.6469,3.6594,3.6615,3.6689,3.6557,3.691,3.692,3.6929,3.7018,3.7038,3.7055,0,0,0,0,0,3.6139,3.6256,3.6236,3.626,3.6376,3.6475,3.649,3.6484,3.6432,3.6488,3.6506,3.6471,3.6668,3.6606,3.663,3.6707,3.6906,3.6917,3.6929,3.701,3.7034,3.7054,0,0,0,0,0,0,3.6218,3.6262,3.6241,3.6376,3.6422,3.6464,3.6535,3.651,3.6572,3.6561,3.6551,3.6563,3.6685,3.6708,3.6638,3.6852,3.6779,3.6795,3.6833,3.6856,3.6873,3.6865,3.6565,0,0,0,0,0,3.6251,3.6327,3.6362,3.6478,3.6502,3.6515,3.6558,3.6549,3.6596,3.6616,3.6642,3.669,3.6762,3.681,3.6879,3.7022,3.7031,3.7087,3.7105,3.7119,3.7134,3.721,3.7235,3.6972,3.6972,3.6972,0,0,3.632,3.6353,3.6402,3.6495,3.6529,3.6608,3.6532,3.6619,3.6677,3.6629,3.6741,3.6763,3.6815,3.6945,3.7004,3.6968,3.7209,3.7134,3.7146,3.7152,3.7225,3.7249,3.7271,3.698,3.6979,3.6977,0,0,3.6485,3.6519,3.6619,3.6656,3.6709,3.6717,3.6741,3.6787,3.6799,3.6912,3.6877,3.6946,3.7072,3.711,3.7146,3.7327,3.7296,3.735,3.7444,3.7519,3.7539,3.7558,3.7621,3.7644,3.7364,3.7364,3.7364,0,3.6564,3.6682,3.6674,3.6764,3.6805,3.6765,3.6866,3.6902,3.6975,3.7005,3.6963,3.712,3.7152,3.729,3.7335,3.7365,3.7392,3.7343,3.7537,3.7555,3.7572,3.7633,3.7657,3.737,3.737,3.7369,3.7368,0,3.6776,3.6858,3.6933,3.7004,3.7054,3.7149,3.7155,3.7207,3.7194,3.7206,3.7321,3.7358,3.7433,3.7466,3.7455,3.7603,3.7579,3.7538,3.7464,3.7604,3.766,3.7683,3.7379,3.7377,3.7375,3.7373,0,0,3.6994,3.7059,3.7087,3.7118,3.7175,3.7238,3.7331,3.7404,3.7448,3.7501,3.7578,3.7685,3.7648,3.7689,3.7681,3.7747,3.7887,3.7698,3.7699,3.7731,3.8052,3.8081,3.8108,3.7867,3.7872,3.7875,3.8047,0,3.7162,3.7324,3.732,3.7471,3.7546,3.751,3.7591,3.7634,3.7648,3.7714,3.7729,3.7805,3.775,3.7774,3.7838,3.7856,3.7951,3.7844,3.7939,3.7942,3.7925,3.8138,3.817,3.833,3.8069,3.8073,3.8075,0,3.738,3.7439,3.7598,3.7642,3.7674,3.7747,3.7813,3.7877,3.7925,3.7931,3.7977,3.7959,3.8053,3.7977,3.8107,3.8034,3.8073,3.8088,3.8094,3.8102,3.8016,3.815,3.8381,3.8404,3.811,3.8108,3.8105,0,3.7522,3.7641,3.7751,3.7779,3.7835,3.7886,3.7912,3.7956,3.8,3.8058,3.8087,3.8156,3.8193,3.8247,3.8248,3.8193,3.8379,3.8303,3.8385,3.8385,3.8425,3.8422,3.8664,3.8452,3.8452,3.8451,3.8451,0,3.771,3.7808,3.7815,3.7883,3.7992,3.7985,3.8093,3.8114,3.8153,3.8224,3.8197,3.8264,3.8262,3.833,3.8332,3.8438,3.8456,3.8462,3.8461,3.8464,3.8463,3.8488,3.8477,3.8458,3.8456,3.8455,3.8454,0,3.7886,3.7895,3.8012,3.8054,3.8067,3.8146,3.8182,3.8246,3.8258,3.8348,3.8368,3.8387,3.8465,3.8472,3.8564,3.8565,3.8693,3.8681,3.8677,3.8674,3.8756,3.8748,3.9021,3.9056,3.8823,3.8825,3.8827,0,3.8004,3.8079,3.8129,3.8175,3.8203,3.8277,3.8321,3.8318,3.8366,3.8427,3.8484,3.856,3.862,3.8748,3.8769,3.8839,3.8827,3.8919,3.8838,3.8838,3.8828,3.8823,3.883,3.8934,3.8936,3.8938,3.894,0,3.8214,3.8215,3.828,3.8348,3.8402,3.8455,3.8504,3.8543,3.8546,3.8601,3.8681,3.8728,3.8822,3.8897,3.8966,3.8992,3.8967,3.8966,3.8988,3.8991,3.8985,3.8988,3.8718,3.8959,3.8957,3.8956,3.8955,3.8954,3.8364,3.8429,3.8474,3.8548,3.8585,3.8632,3.8694,3.8713,3.8779,3.8855,3.8849,3.8938,3.8984,3.9073,3.9104,3.9173,3.9143,3.9176,3.9184,3.9192,3.9199,3.8975,3.9186,3.9185,3.9185,3.9184,3.9184,0,3.8572,3.8599,3.8667,3.8737,3.8795,3.8766,3.882,3.887,3.8948,3.8993,3.9053,3.9145,3.9218,3.9246,3.9317,3.9367,3.9358,3.9386,3.9382,3.9388,3.9223,3.9196,3.9393,3.9393,3.9393,3.9392,3.9392,3.9392,3.8686,3.8793,3.8799,3.8924,3.8951,3.9037,3.9069,3.9112,3.9148,3.9252,3.9312,3.933,3.9368,3.9442,3.9507,3.9514,3.9541,3.9574,3.9575,3.9421,3.94,3.938,3.9354,3.958,3.9581,3.9734,3.9735,3.9736]},{"header":{"parameterUnit":"m.s-1","parameterCategory":1,"la1":30.2991,"la2":30.254,"lo1":-89.0895,"lo2":-89.0444,"dy":0.0017,"dx":0.0017,"nx":28,"ny":28,"refTime":"2025-07-10T09:00:00:Z","depth":0,"parameterNumber":3,"parameterNumberName":"V-component_of_WINDS"},"data":[0,0,0,0,0,0,0,0,0,0,0,0,0,0,0,0,0,0,0,0,0,0,0,0,0,0,0,0,0,0,0,0,0,0,0,0,0,0,0,0,0,0,0,0,0,0,0,0,0,0,0,0,0,0,0,0,0,0,-0.3183,-0.3182,0,-0.3177,-0.3177,-0.3177,-0.3172,-0.3172,-0.3172,-0.3172,-0.3166,-0.3165,-0.3165,0,0,0,0,0,0,0,0,0,0,0,0,0,-0.3189,-0.3188,-0.3183,-0.3182,-0.3182,-0.3177,-0.3177,-0.3177,-0.3172,-0.3172,-0.3172,-0.3172,-0.3166,-0.3165,-0.3165,0,0,0,0,0,0,0,0,0,0,0,0,0,-0.3185,-0.3188,-0.3183,-0.3179,-0.3179,-0.3177,-0.3177,-0.3177,-0.3172,-0.3172,-0.3172,-0.3172,-0.3166,-0.3165,-0.3165,-0.3166,0,0,-0.3165,-0.3165,0,0,0,0,0,0,0,0,-0.3185,-0.3185,-0.318,-0.3179,-0.3179,-0.3175,-0.3177,-0.3173,-0.3172,-0.3174,-0.3172,-0.3172,-0.3169,-0.3168,-0.3167,-0.3166,-0.3166,-0.3165,-0.3165,-0.3165,-0.3165,0,0,0,0,0,0,0,-0.3185,-0.3185,-0.318,-0.318,-0.3179,-0.3178,-0.3177,-0.3176,-0.3172,-0.3174,-0.3174,-0.3173,-0.3169,-0.3168,-0.3167,-0.3165,-0.3165,-0.3165,-0.3165,-0.3165,-0.3164,-0.3164,0,0,0,0,0,0,-0.3186,-0.3185,-0.318,-0.318,-0.3182,-0.3178,-0.3177,-0.3176,-0.3172,-0.3171,-0.3173,-0.3173,-0.3168,-0.3167,-0.3167,-0.3167,-0.3165,-0.3164,-0.3164,-0.3164,-0.3164,-0.3164,0,0,0,0,0,0,-0.3186,-0.3186,-0.3181,-0.3182,-0.3182,-0.3178,-0.3177,-0.3176,-0.3175,-0.3171,-0.3171,-0.3173,-0.3168,-0.3167,-0.3166,-0.3167,-0.3164,-0.3164,-0.3163,-0.3164,-0.3164,-0.3168,0,0,0,0,0,0,-0.3186,-0.3186,-0.3186,-0.3182,-0.3182,-0.318,-0.3177,-0.3176,-0.3175,-0.3175,-0.3171,-0.317,-0.3168,-0.3167,-0.3166,-0.3167,-0.3164,-0.3163,-0.3164,-0.3164,-0.3168,-0.3168,-0.3169,0,0,0,0,0,-0.3187,-0.3188,-0.3186,-0.3186,-0.3182,-0.318,-0.318,-0.3177,-0.3175,-0.3175,-0.3173,-0.3171,-0.3167,-0.3166,-0.3166,-0.3167,-0.3163,-0.3163,-0.3164,-0.3168,-0.3168,-0.3169,0,0,0,0,0,0,-0.3191,-0.3187,-0.3185,-0.3185,-0.3183,-0.3179,-0.318,-0.3177,-0.3176,-0.3175,-0.3171,-0.3171,-0.317,-0.3168,-0.3168,-0.3167,-0.3165,-0.3165,-0.3168,-0.3169,-0.3169,-0.3169,-0.3164,0,0,0,0,0,-0.3193,-0.3192,-0.3188,-0.3188,-0.3187,-0.3184,-0.3183,-0.318,-0.3178,-0.3177,-0.3175,-0.3172,-0.317,-0.3169,-0.3168,-0.3168,-0.3167,-0.3168,-0.3168,-0.3169,-0.3169,-0.3168,-0.3169,-0.3164,-0.3164,-0.3164,0,0,-0.3195,-0.3192,-0.3192,-0.3189,-0.3187,-0.3186,-0.3183,-0.3182,-0.3181,-0.3177,-0.3176,-0.3174,-0.3171,-0.317,-0.317,-0.3169,-0.317,-0.3169,-0.3169,-0.3169,-0.3168,-0.3169,-0.3169,-0.3164,-0.3164,-0.3164,0,0,-0.3198,-0.3196,-0.3196,-0.3194,-0.3191,-0.3189,-0.3189,-0.3185,-0.3184,-0.3183,-0.318,-0.3178,-0.3176,-0.3174,-0.3172,-0.3175,-0.3172,-0.3174,-0.3176,-0.3176,-0.3176,-0.3176,-0.3177,-0.3177,-0.3174,-0.3174,-0.3174,0,-0.3201,-0.3199,-0.3196,-0.3195,-0.3194,-0.319,-0.319,-0.3188,-0.3185,-0.3184,-0.3183,-0.3179,-0.3177,-0.3176,-0.3176,-0.3175,-0.3175,-0.3174,-0.3176,-0.3177,-0.3177,-0.3177,-0.3178,-0.3174,-0.3174,-0.3174,-0.3174,0,-0.3203,-0.3202,-0.3202,-0.3199,-0.3198,-0.3197,-0.3194,-0.3193,-0.3191,-0.3189,-0.3187,-0.3184,-0.3182,-0.3181,-0.3179,-0.318,-0.3179,-0.3177,-0.3175,-0.3178,-0.3178,-0.3178,-0.3175,-0.3175,-0.3175,-0.3175,0,0,-0.3209,-0.3204,-0.3205,-0.3203,-0.3199,-0.3198,-0.3198,-0.3195,-0.3194,-0.3192,-0.3191,-0.3189,-0.3187,-0.3186,-0.3183,-0.3183,-0.3184,-0.3181,-0.3181,-0.3181,-0.3184,-0.3186,-0.3186,-0.3183,-0.3183,-0.3183,-0.3184,0,-0.3212,-0.321,-0.3207,-0.3207,-0.3205,-0.3202,-0.3201,-0.3199,-0.3197,-0.3195,-0.3192,-0.3191,-0.3189,-0.3188,-0.3187,-0.3184,-0.3185,-0.3184,-0.3182,-0.3182,-0.3182,-0.3186,-0.3188,-0.3189,-0.3185,-0.3185,-0.3185,0,-0.3215,-0.3213,-0.3212,-0.3208,-0.3208,-0.3207,-0.3205,-0.3203,-0.32,-0.3199,-0.3197,-0.3194,-0.3193,-0.3191,-0.3189,-0.3188,-0.3187,-0.3186,-0.3186,-0.3185,-0.3183,-0.3186,-0.319,-0.319,-0.3185,-0.3185,-0.3185,0,-0.3219,-0.3216,-0.3215,-0.3214,-0.321,-0.321,-0.3208,-0.3205,-0.3203,-0.3201,-0.32,-0.3198,-0.3196,-0.3194,-0.3191,-0.319,-0.3189,-0.3187,-0.3188,-0.3188,-0.3188,-0.3188,-0.3191,-0.3187,-0.3187,-0.3187,-0.3187,0,-0.3222,-0.3222,-0.3217,-0.3217,-0.3216,-0.3212,-0.3212,-0.321,-0.3207,-0.3206,-0.3203,-0.3201,-0.3197,-0.3195,-0.3193,-0.3191,-0.3191,-0.3189,-0.3188,-0.3189,-0.319,-0.3188,-0.3188,-0.3187,-0.3187,-0.3187,-0.3187,0,-0.3227,-0.3224,-0.3223,-0.3219,-0.3218,-0.3217,-0.3214,-0.3213,-0.3211,-0.3209,-0.3209,-0.3205,-0.3202,-0.3199,-0.3196,-0.3194,-0.3193,-0.3192,-0.3194,-0.3193,-0.3194,-0.3194,-0.3197,-0.3197,-0.3193,-0.3193,-0.3193,0,-0.3229,-0.3229,-0.3225,-0.3224,-0.3222,-0.3221,-0.3219,-0.3216,-0.3214,-0.3211,-0.321,-0.3208,-0.3206,-0.3202,-0.3199,-0.3196,-0.3195,-0.3196,-0.3195,-0.3196,-0.3195,-0.3195,-0.3195,-0.3197,-0.3197,-0.3197,-0.3197,0,-0.3233,-0.3232,-0.323,-0.3227,-0.3226,-0.3224,-0.3222,-0.3221,-0.3217,-0.3215,-0.3213,-0.3212,-0.3208,-0.3206,-0.3203,-0.32,-0.3198,-0.3197,-0.3197,-0.3198,-0.3199,-0.3199,-0.3195,-0.3197,-0.3197,-0.3197,-0.3197,-0.3197,-0.3236,-0.3236,-0.3233,-0.3231,-0.3229,-0.3227,-0.3226,-0.3223,-0.3221,-0.3219,-0.3216,-0.3214,-0.3211,-0.3207,-0.3205,-0.3203,-0.3202,-0.3202,-0.3202,-0.3202,-0.3202,-0.32,-0.3202,-0.3202,-0.3202,-0.3202,-0.3202,0,-0.324,-0.3238,-0.3236,-0.3233,-0.3232,-0.323,-0.3227,-0.3226,-0.3224,-0.3221,-0.3219,-0.3217,-0.3214,-0.321,-0.3208,-0.3207,-0.3205,-0.3206,-0.3206,-0.3206,-0.3203,-0.3203,-0.3207,-0.3207,-0.3207,-0.3207,-0.3207,-0.3207,-0.3242,-0.3241,-0.3239,-0.3237,-0.3234,-0.3232,-0.3231,-0.3229,-0.3227,-0.3224,-0.3222,-0.322,-0.3217,-0.3213,-0.3211,-0.321,-0.3209,-0.321,-0.3208,-0.3206,-0.3206,-0.3205,-0.3206,-0.321,-0.321,-0.3211,-0.3211,-0.3211]}]]